Wind_Speed
35 33 38 33 30 31 33 34 34 29 24 22 25 27 26 27 29 32 34 36 38 38 39 38 39 41 44 46 48 49 52 52 50 55 57 59 60 63 64 66 67 67 67 70
40 38 39 36 34 32 34 34 36 32 24 23 27 30 31 33 34 37 38 40 40 41 41 41 44 48 48 50 52 54 55 57 59 62 64 66 68 71 72 74 73 74 76 74
42 40 43 41 38 37 36 34 38 35 32 27 29 30 37 38 40 42 43 45 45 45 45 44 46 49 52 53 54 55 57 57 61 65 69 70 68 68 75 75 78 77 77 78
45 47 49 49 43 43 36 39 38 39 37 34 37 30 42 46 45 48 48 49 49 50 51 50 51 54 53 55 57 58 59 62 65 67 69 70 74 76 78 82 80 81 81 75
52 53 55 52 53 48 42 44 44 45 45 41 40 45 40 51 52 52 53 53 52 54 53 52 54 55 55 56 60 61 63 65 70 73 77 76 80 80 77 78 80 83 86 91
58 57 56 56 56 56 52 50 51 51 48 42 48 53 37 53 55 55 56 57 59 60 59 57 59 59 60 60 61 64 65 69 73 76 81 84 85 89 91 89 87 82 81 79
57 58 58 56 58 58 58 58 57 53 53 50 53 54 42 50 57 59 59 61 64 65 62 62 65 64 64 65 66 70 73 78 82 88 90 90 90 87 90 82 88 90 94 96
52 51 56 55 58 60 60 61 61 59 54 54 54 50 51 57 58 61 62 63 65 67 68 68 65 68 68 74 76 81 85 87 87 90 90 89 94 90 92 96 94 95 87 93
54 50 50 53 55 57 56 55 62 60 58 57 55 56 58 60 64 67 69 68 69 72 72 70 72 77 79 78 79 84 87 89 92 94 94 92 95 97 97 98 95 100 106 112
60 56 54 54 57 56 57 61 63 62 62 62 59 62 63 65 68 70 72 74 76 76 77 77 77 75 78 81 86 85 89 93 90 89 91 93 89 97 99 103 102 107 111 116
66 63 59 60 60 63 61 61 65 67 66 68 68 66 66 67 69 71 74 76 75 75 76 78 80 80 85 87 91 96 98 94 98 102 100 103 96 99 99 104 111 119 124 122
70 70 65 62 64 67 67 65 68 69 70 72 71 62 65 69 71 74 77 78 79 79 79 80 84 88 91 95 97 101 103 101 99 98 99 103 106 105 110 118 123 127 131 132
75 76 73 69 65 65 66 68 70 74 75 72 76 68 75 73 75 80 84 85 86 88 89 90 91 94 97 98 101 104 94 101 110 104 110 109 111 120 124 126 131 137 136 127
80 81 78 74 75 76 74 75 77 81 79 76 75 77 80 80 83 87 90 90 91 90 91 95 98 97 102 95 102 107 109 113 107 106 114 115 119 128 129 135 139 136 128 119
83 83 84 82 83 83 82 81 82 83 80 87 79 82 82 85 88 91 93 95 96 98 101 105 106 100 101 108 109 117 104 112 118 121 123 129 134 138 137 142 137 133 119 112
86 85 90 89 86 88 88 87 84 88 89 91 91 88 89 97 100 99 100 96 98 101 98 88 90 102 101 105 108 113 112 118 128 128 135 136 138 142 145 140 131 124 116 111
90 88 89 89 91 94 98 83 91 91 91 93 93 88 95 94 95 98 102 100 96 99 87 94 104 105 109 116 121 122 126 132 136 138 141 145 146 149 144 132 127 120 115 109
90 91 95 94 93 100 92 93 93 92 90 89 91 94 99 94 93 95 94 95 98 102 103 107 111 115 117 124 131 132 136 141 142 145 148 150 151 148 138 131 126 119 113 110
92 93 96 96 97 97 94 86 88 91 88 92 94 94 100 104 100 103 107 106 108 107 110 115 117 124 127 131 138 141 142 145 149 151 152 157 151 145 137 129 123 115 113 111
96 98 102 106 105 102 92 92 93 97 96 95 98 102 102 100 101 106 112 113 116 115 115 118 126 135 135 141 145 146 148 154 155 157 159 155 153 137 128 125 120 117 112 108
106 103 106 103 102 103 97 99 100 103 102 107 104 105 104 101 103 107 111 117 117 119 121 129 135 141 145 147 149 153 157 159 161 162 158 150 138 130 128 122 118 115 108 103
107 104 103 104 110 109 105 104 106 109 104 104 106 107 108 106 110 109 118 123 120 129 135 141 147 147 149 152 154 157 158 164 163 152 142 137 131 127 122 118 114 108 103 99
107 106 109 114 116 112 107 111 113 113 108 109 108 108 110 114 120 128 131 131 135 141 146 147 149 150 153 152 155 159 164 158 143 142 134 130 125 121 118 113 107 103 99 96
119 118 116 115 113 113 114 118 120 117 115 113 115 119 122 120 128 131 135 140 143 147 148 148 149 151 153 158 159 163 151 142 134 133 131 125 121 116 111 106 104 100 98 95
125 125 119 119 118 121 122 123 125 119 120 124 132 130 134 141 139 140 142 143 145 148 150 152 154 156 161 162 160 148 138 135 132 128 126 120 114 110 105 100 99 98 96 92
121 125 129 129 129 129 130 130 133 135 134 134 138 143 142 139 145 149 146 148 152 152 152 155 158 161 159 152 145 136 131 129 127 124 118 113 108 103 99 97 96 94 92 89
Wind_Direction
261 264 265 266 268 267 265 269 271 270 269 268 273 280 283 286 291 292 294 294 293 293 297 298 299 301 300 300 299 298 298 297 294 293 294 291 294 294 293 292 290 290 289 287
261 262 263 266 267 271 268 265 266 269 268 271 278 281 287 286 288 290 292 291 290 290 291 295 299 301 301 300 297 293 294 294 292 291 291 291 291 292 292 293 292 291 290 289
264 264 265 266 271 273 270 269 265 271 271 273 278 285 283 285 289 292 289 287 286 286 286 288 292 295 296 295 295 294 290 289 289 291 293 293 293 296 298 295 293 290 286 285
261 263 263 269 271 267 268 270 270 272 274 277 282 280 282 283 286 287 286 285 283 287 289 288 291 294 293 290 290 290 289 287 288 289 291 291 291 289 294 292 288 285 284 281
255 258 261 266 268 269 265 271 273 272 273 275 282 282 280 281 283 286 284 282 280 283 283 283 284 287 287 287 284 284 284 283 285 287 290 292 292 293 293 292 286 288 284 276
259 257 260 265 266 270 270 270 272 273 274 276 277 274 278 277 282 282 281 280 278 281 281 279 281 283 286 287 287 283 282 285 286 286 289 286 287 285 289 287 284 285 284 287
264 262 260 263 265 267 268 269 274 275 274 271 267 272 276 274 276 279 281 281 281 281 279 281 288 290 290 290 289 282 279 281 285 287 288 288 291 290 286 289 286 287 289 287
266 262 260 259 261 264 267 270 273 271 270 272 273 276 273 276 275 277 280 282 282 278 278 283 287 289 286 287 286 283 285 289 291 290 291 292 291 289 289 285 282 295 291 301
263 263 261 262 263 265 266 269 267 269 272 274 274 274 273 274 275 279 279 278 277 277 278 277 275 277 280 281 283 285 289 289 287 288 288 287 285 283 282 290 294 298 299 303
262 260 261 261 262 266 267 266 270 272 272 272 272 270 272 274 276 277 277 276 275 275 274 275 278 280 281 280 284 283 284 285 287 288 285 282 287 283 285 283 303 302 305 305
262 259 258 259 261 261 261 264 267 268 269 269 269 271 274 273 273 273 273 273 273 274 275 276 279 283 284 284 284 286 287 290 289 284 283 285 297 287 305 304 308 310 308 305
259 259 260 259 259 262 265 266 269 270 267 267 270 272 273 272 271 271 271 271 273 276 278 279 279 281 281 283 284 284 285 283 285 290 287 289 290 306 298 306 309 309 308 307
258 258 258 259 261 265 266 264 265 267 268 269 269 272 270 271 270 269 270 272 273 275 275 275 276 277 278 281 281 282 288 284 280 292 294 307 300 308 309 309 309 310 307 303
256 257 259 259 261 263 266 267 267 266 267 271 270 272 274 274 273 271 272 273 272 274 275 276 275 280 281 284 282 282 284 288 292 299 302 310 308 309 309 310 309 306 305 303
256 258 260 260 262 264 265 266 268 267 269 269 270 271 274 277 275 273 273 272 272 274 275 276 278 280 288 282 291 287 295 305 304 309 308 308 308 309 310 310 307 306 303 301
261 263 264 262 263 265 266 268 272 272 272 273 272 273 274 275 275 274 275 277 275 276 275 287 291 282 291 295 295 303 308 306 307 307 306 307 308 309 310 308 306 305 303 301
262 263 264 265 266 268 267 278 275 275 273 272 272 275 277 279 279 278 275 274 282 288 294 294 302 306 306 308 309 306 306 306 306 305 306 307 308 311 310 308 307 304 303 302
262 264 267 269 268 270 276 273 276 276 271 273 274 273 276 282 285 291 294 289 292 297 299 302 304 305 306 307 306 305 303 303 305 306 306 308 309 310 308 307 305 305 303 302
265 268 271 269 267 273 275 278 278 278 281 281 280 281 285 285 285 295 299 300 301 302 301 298 300 302 302 301 303 301 302 304 306 306 308 308 309 308 307 306 305 304 304 303
266 266 268 271 272 275 278 279 279 280 280 283 284 280 288 286 285 291 300 301 300 297 297 298 299 301 299 299 301 303 303 304 305 306 306 307 306 305 305 305 305 304 303 301
267 270 273 272 274 279 281 281 280 281 282 279 282 287 288 290 291 293 294 297 297 296 296 296 298 299 299 299 301 302 301 303 304 306 305 303 303 304 304 304 303 303 301 300
270 270 271 271 276 279 279 279 278 280 280 280 283 289 291 290 292 287 291 293 292 293 293 294 297 298 297 297 299 300 301 302 302 302 302 302 302 303 303 302 302 300 299 298
268 268 269 272 274 276 279 277 281 278 278 282 281 283 288 288 290 289 291 290 291 293 294 292 293 294 295 297 297 299 300 301 301 300 301 302 302 302 302 301 300 299 298 297
267 271 272 272 274 275 274 275 278 278 280 282 283 280 284 283 287 288 288 289 291 291 291 292 292 293 295 296 298 298 299 299 299 300 301 301 302 301 301 300 300 299 297 297
266 271 273 272 271 272 273 273 274 274 276 275 278 281 281 284 284 285 289 290 291 291 291 290 291 293 295 297 296 297 297 298 299 299 300 301 301 300 300 299 297 296 296 296
264 264 267 267 268 270 270 270 273 276 277 276 277 279 281 282 284 286 288 288 288 289 290 291 291 291 293 295 295 295 297 298 299 299 300 300 300 300 299 297 296 295 294 295
Height
10743 10745 10741 10745 10747 10749 10748 10747 10746 10747 10751 10753 10752 10750 10751 10750 10750 10749 10748 10747 10745 10743 10742 10740 10739 10739 10737 10735 10733 10730 10728 10726 10724 10721 10718 10715 10713 10710 10707 10705 10702 10699 10696 10692
10733 10736 10733 10736 10737 10739 10738 10739 10736 10738 10742 10744 10743 10742 10740 10740 10740 10739 10738 10737 10736 10734 10733 10732 10730 10728 10727 10725 10723 10720 10718 10716 10713 10709 10706 10702 10699 10695 10693 10688 10685 10682 10679 10676
10724 10727 10723 10725 10727 10728 10728 10729 10727 10729 10731 10734 10734 10736 10731 10729 10728 10727 10726 10725 10724 10723 10723 10722 10721 10718 10716 10713 10711 10709 10706 10703 10699 10696 10692 10689 10685 10682 10677 10673 10668 10664 10659 10654
10715 10715 10713 10713 10717 10715 10721 10717 10719 10720 10721 10723 10723 10729 10722 10717 10718 10716 10715 10714 10712 10712 10711 10711 10709 10706 10703 10700 10699 10696 10693 10689 10685 10681 10676 10672 10668 10663 10658 10653 10651 10643 10639 10635
10702 10702 10701 10705 10702 10704 10709 10708 10708 10709 10710 10713 10715 10711 10718 10707 10705 10704 10703 10702 10702 10701 10699 10698 10696 10693 10690 10688 10685 10683 10680 10676 10671 10666 10662 10656 10650 10646 10639 10636 10631 10626 10620 10612
10686 10689 10691 10691 10691 10692 10696 10696 10695 10697 10700 10706 10703 10697 10711 10696 10693 10692 10691 10691 10689 10688 10687 10686 10683 10681 10678 10674 10672 10668 10664 10660 10655 10650 10644 10638 10632 10626 10621 10616 10609 10603 10596 10588
10669 10675 10678 10681 10678 10679 10681 10682 10683 10686 10687 10692 10689 10687 10698 10689 10681 10677 10677 10676 10674 10673 10671 10669 10668 10666 10663 10660 10655 10650 10644 10639 10634 10629 10623 10618 10611 10604 10598 10592 10584 10579 10571 10563
10659 10662 10661 10666 10665 10666 10668 10668 10669 10670 10673 10676 10677 10681 10680 10673 10672 10668 10664 10660 10658 10656 10654 10654 10653 10650 10647 10643 10638 10631 10626 10620 10613 10608 10603 10596 10591 10584 10578 10570 10561 10551 10543 10532
10643 10649 10648 10650 10650 10650 10655 10658 10648 10653 10657 10660 10663 10665 10663 10661 10656 10654 10650 10647 10643 10641 10642 10639 10637 10634 10630 10623 10617 10610 10605 10599 10591 10584 10578 10571 10566 10559 10554 10544 10533 10523 10514 10502
10628 10632 10636 10637 10637 10639 10640 10637 10636 10639 10641 10642 10647 10646 10646 10645 10642 10637 10633 10628 10625 10625 10623 10621 10619 10616 10611 10604 10597 10590 10583 10577 10571 10564 10555 10547 10540 10533 10525 10515 10504 10493 10484 10474
10609 10613 10620 10622 10626 10620 10623 10625 10624 10621 10625 10624 10626 10632 10631 10629 10625 10621 10615 10611 10609 10607 10605 10603 10601 10595 10588 10581 10574 10568 10562 10555 10548 10540 10532 10522 10511 10502 10492 10484 10472 10461 10450 10437
10591 10593 10600 10604 10606 10606 10608 10610 10607 10605 10604 10604 10608 10620 10612 10610 10606 10602 10596 10594 10591 10588 10586 10582 10578 10571 10563 10557 10551 10541 10537 10529 10521 10512 10502 10490 10482 10471 10461 10452 10441 10429 10417 10401
10573 10576 10577 10586 10591 10592 10590 10586 10587 10585 10584 10594 10588 10601 10586 10591 10586 10580 10575 10574 10573 10569 10565 10560 10555 10547 10537 10533 10526 10518 10509 10501 10492 10481 10472 10459 10450 10440 10431 10422 10407 10391 10377 10362
10552 10555 10564 10570 10566 10566 10568 10569 10568 10564 10568 10573 10578 10572 10566 10564 10561 10555 10552 10552 10550 10547 10542 10536 10529 10521 10514 10507 10499 10491 10481 10473 10463 10451 10441 10430 10423 10413 10399 10387 10371 10354 10339 10325
10533 10539 10539 10547 10546 10546 10550 10551 10549 10548 10554 10543 10562 10553 10544 10536 10531 10528 10530 10528 10526 10522 10516 10508 10502 10494 10485 10478 10470 10458 10448 10437 10429 10420 10409 10398 10389 10376 10365 10347 10331 10316 10302 10288
10515 10522 10516 10522 10528 10524 10523 10530 10537 10534 10533 10528 10529 10531 10523 10508 10504 10504 10503 10504 10502 10495 10488 10480 10474 10467 10456 10447 10437 10426 10415 10409 10400 10391 10379 10369 10357 10343 10324 10308 10293 10279 10266 10252
10497 10500 10498 10502 10498 10496 10491 10530 10508 10512 10510 10507 10502 10507 10492 10486 10480 10477 10477 10475 10470 10464 10456 10451 10441 10431 10423 10414 10405 10397 10385 10378 10370 10357 10344 10333 10319 10304 10286 10269 10256 10243 10230 10217
10479 10479 10475 10478 10477 10466 10495 10488 10490 10484 10484 10480 10477 10475 10466 10461 10457 10452 10450 10446 10439 10434 10426 10418 10410 10401 10390 10382 10375 10366 10355 10346 10336 10323 10309 10295 10282 10266 10252 10236 10221 10210 10197 10185
10459 10457 10453 10450 10451 10450 10462 10469 10464 10453 10455 10453 10450 10444 10437 10435 10431 10431 10420 10415 10410 10403 10396 10388 10380 10372 10364 10355 10347 10337 10324 10310 10298 10283 10273 10260 10245 10232 10219 10203 10190 10177 10165 10153
10436 10435 10431 10427 10425 10426 10442 10434 10432 10429 10429 10431 10422 10416 10417 10412 10407 10403 10394 10390 10383 10377 10368 10359 10353 10345 10334 10325 10313 10299 10286 10276 10263 10254 10240 10227 10216 10202 10187 10172 10159 10147 10136 10125
10407 10408 10406 10399 10397 10401 10405 10402 10402 10396 10406 10397 10393 10389 10388 10384 10380 10377 10369 10366 10359 10350 10339 10332 10325 10315 10300 10290 10281 10269 10258 10245 10232 10222 10209 10195 10182 10168 10156 10143 10129 10117 10106 10096
10379 10378 10381 10377 10375 10377 10381 10375 10372 10368 10368 10368 10366 10362 10359 10355 10352 10349 10344 10338 10331 10323 10315 10306 10296 10285 10272 10263 10253 10240 10229 10213 10204 10190 10176 10164 10152 10139 10127 10114 10101 10090 10079 10068
10353 10352 10355 10357 10356 10351 10350 10342 10337 10334 10339 10342 10344 10342 10335 10332 10329 10326 10319 10312 10304 10293 10285 10277 10269 10256 10243 10233 10224 10211 10198 10184 10169 10157 10144 10133 10121 10109 10097 10083 10071 10059 10049 10041
10330 10330 10330 10330 10331 10322 10317 10311 10308 10307 10313 10317 10317 10316 10314 10309 10306 10300 10292 10283 10275 10265 10254 10245 10235 10225 10214 10201 10194 10183 10167 10153 10138 10125 10113 10102 10090 10078 10067 10055 10041 10030 10020 10014
10308 10304 10304 10299 10295 10290 10285 10284 10282 10286 10290 10293 10294 10295 10289 10281 10275 10269 10262 10253 10244 10233 10221 10211 10203 10194 10182 10171 10162 10147 10135 10122 10108 10094 10083 10071 10060 10049 10039 10028 10015 10004 9995 9988
10281 10276 10271 10268 10266 10262 10257 10256 10257 10264 10264 10264 10266 10262 10256 10253 10246 10238 10229 10218 10211 10202 10189 10179 10170 10161 10147 10137 10127 10115 10102 10090 10078 10065 10052 10040 10031 10022 10011 10000 9989 9979 9971 9963